Vorticity
6 5 5 5 5 5 6 5 6 6 6 6 6 6 6 6 5 5 5 5 5 5 5 5 4 4 4 4 4 4 5 5 5 5 5 5 5 5 5 5 5 5 5 5 5 4 4 4 4 5 5 4
6 5 6 5 5 5 5 5 5 5 5 5 5 5 4 4 4 4 4 4 4 4 5 4 4 4 4 4 4 4 4 4 4 4 4 4 4 4 4 4 4 5 5 5 5 5 5 5 5 5 5 5
5 5 5 4 4 4 4 4 4 4 4 3 4 3 4 4 3 4 3 3 3 3 3 3 3 3 3 3 3 3 3 3 3 3 3 3 3 4 4 4 4 4 4 4 4 4 4 5 5 5 5 5
3 3 3 3 3 3 3 3 2 3 2 2 3 2 3 3 3 3 3 3 2 3 2 2 2 2 2 2 2 2 2 3 3 3 3 3 3 3 3 3 3 3 3 3 3 3 3 3 4 4 4 4
3 3 3 3 3 3 3 3 3 3 3 3 3 3 3 3 3 3 3 4 3 4 4 4 4 4 4 3 3 3 3 3 3 3 3 4 4 3 4 3 4 4 4 4 4 3 3 2 3 3 3 3
4 4 4 4 4 5 5 5 5 5 5 5 5 5 5 5 5 5 5 5 5 5 5 5 5 5 5 5 5 5 5 4 4 4 4 4 4 4 4 4 4 4 4 4 5 5 5 4 3 3 3 3
4 5 5 5 5 6 6 6 6 6 6 6 6 6 7 7 7 7 7 6 6 6 6 6 6 6 6 6 6 6 6 6 6 6 6 5 5 5 5 5 5 5 5 5 5 5 5 6 5 5 4 4
6 6 6 6 6 6 6 7 7 7 7 7 7 7 7 7 8 8 8 8 8 8 8 8 8 8 8 8 8 8 8 8 8 8 8 8 8 8 7 7 7 7 7 6 6 6 6 6 6 7 6 6
6 6 6 6 6 7 6 7 7 7 7 7 8 8 8 9 9 10 10 10 10 11 11 12 12 12 12 12 12 11 12 12 12 12 12 12 11 11 11 11 11 10 10 9 9 8 7 7 6 7 8 8
7 7 7 7 7 7 7 8 8 8 8 9 9 10 10 12 12 14 15 15 16 16 16 16 17 17 17 17 17 17 16 15 15 15 15 15 15 14 14 14 14 14 14 14 14 14 13 12 10 9 9 9
7 7 7 7 8 8 8 10 10 11 12 13 14 14 15 15 15 15 15 15 15 14 14 14 13 13 14 13 14 15 15 15 15 15 15 15 15 14 14 14 14 14 14 14 15 16 16 16 16 15 14 13
7 8 8 9 10 11 12 13 13 15 16 16 15 15 14 13 12 11 10 10 9 9 9 9 9 9 9 9 10 10 11 12 12 13 13 14 14 14 14 14 14 13 13 13 13 13 14 15 15 16 17 17
10 11 12 13 14 14 16 15 14 14 13 12 11 10 9 9 8 8 8 8 8 8 9 9 9 9 10 10 10 10 10 10 10 10 10 10 11 11 11 11 12 12 12 11 11 11 11 11 12 13 14 14
14 15 16 15 15 14 13 11 10 9 8 7 7 7 7 7 8 8 9 9 9 9 9 9 9 8 8 8 8 8 7 7 7 7 7 8 8 8 9 9 9 10 10 11 10 10 10 10 9 9 10 11
15 15 14 12 10 9 7 6 6 6 6 6 7 7 8 8 8 9 9 9 8 8 8 8 7 7 7 6 6 6 6 6 6 6 6 6 6 6 7 7 7 8 8 9 9 9 10 10 10 9 9 9
11 10 8 7 6 6 6 6 7 7 7 8 8 8 9 8 8 8 7 7 6 6 6 6 6 6 6 6 5 5 5 5 5 5 5 4 5 5 5 5 5 5 6 6 6 7 7 8 8 8 8 8
7 6 6 6 6 7 8 8 8 8 8 8 8 8 7 7 7 6 6 5 5 5 5 4 4 4 4 4 4 4 4 4 4 3 3 3 3 4 4 4 4 4 4 5 5 5 6 6 6 7 7 7
6 6 7 7 8 8 8 7 7 7 7 6 6 6 5 5 5 5 5 5 5 4 4 3 3 3 3 3 3 3 3 4 4 3 3 3 3 3 3 4 3 4 4 4 4 4 5 5 5 6 6 6
7 7 7 7 7 6 6 6 6 5 5 4 4 5 5 5 4 5 4 4 4 3 3 2 2 3 3 3 3 3 4 4 4 4 4 4 4 4 3 4 3 4 4 4 4 4 4 5 5 5 6 6
8 8 7 7 6 5 5 5 4 4 3 3 3 4 5 5 4 4 4 3 4 3 3 2 2 3 3 3 3 4 4 4 5 5 5 5 5 5 4 4 4 4 5 4 5 5 4 5 4 5 5 6
6 6 6 5 5 4 4 5 4 3 3 4 4 4 5 6 6 5 5 5 4 3 2 2 2 3 3 4 5 5 6 6 7 7 7 7 6 6 6 6 6 6 6 6 6 6 6 6 5 5 5 6
5 5 4 3 3 3 4 4 4 3 4 5 5 6 7 8 7 6 5 4 3 3 3 4 4 5 5 6 7 7 8 8 8 8 8 7 7 7 7 7 7 7 7 7 7 7 7 7 7 7 7 7
4 4 3 3 4 4 5 5 6 6 6 7 8 8 7 6 5 4 4 4 4 5 5 6 6 6 7 8 8 8 9 9 8 8 7 7 7 7 7 7 8 8 8 8 8 8 7 8 8 8 8 7
6 7 6 6 6 6 7 7 8 8 8 8 7 6 4 3 3 3 5 5 6 7 7 8 8 8 9 9 9 9 8 8 7 8 8 8 8 8 8 8 8 9 9 9 9 9 9 9 9 9 9 8
8 8 7 7 7 7 7 8 7 7 6 5 4 3 3 5 5 6 8 8 9 10 10 10 10 10 10 9 9 8 8 8 8 8 7 8 8 8 8 8 8 8 8 9 9 9 10 10 10 10 10 9
6 7 7 8 8 7 7 6 6 5 5 6 6 6 7 8 9 9 10 10 10 10 10 9 9 9 9 9 9 9 9 9 8 9 8 8 8 8 8 7 8 8 8 9 9 9 9 9 10 10 10 9
8 9 9 9 8 7 6 6 6 7 7 9 9 9 9 9 9 9 9 9 9 9 9 9 9 9 10 10 10 9 9 9 9 9 9 9 8 8 8 8 8 8 8 9 9 9 9 9 9 9 10 11
10 10 9 9 8 8 9 8 8 9 9 9 9 9 9 9 9 9 9 9 9 9 9 9 9 10 10 10 9 9 9 9 9 9 9 9 9 9 9 9 8 8 8 8 9 10 10 10 10 10 10 10
10 11 11 10 11 11 11 11 11 11 11 9 10 10 9 9 9 9 9 9 9 9 9 10 10 9 9 9 9 9 8 8 9 9 9 9 10 9 8 9 9 9 8 8 8 9 9 10 10 10 10 10
12 12 12 12 12 12 12 13 13 13 11 10 11 10 9 9 9 9 9 9 9 9 9 9 9 9 8 8 8 8 8 8 8 9 10 10 10 9 9 8 8 9 9 8 7 8 9 10 10 10 10 9
13 13 13 13 14 14 14 14 14 12 11 11 12 11 10 10 10 10 10 10 10 9 9 9 8 8 8 8 8 8 8 8 9 9 10 10 10 9 9 8 8 9 9 9 9 9 10 10 11 11 11 10
Height
5786 5786 5786 5786 5786 5786 5786 5786 5786 5786 5786 5786 5786 5786 5786 5786 5786 5786 5786 5786 5786 5786 5785 5785 5785 5785 5785 5785 5785 5785 5785 5786 5786 5787 5787 5788 5788 5789 5790 5791 5792 5792 5792 5792 5792 5793 5793 5794 5794 5795 5796 5797
5783 5783 5782 5782 5782 5782 5782 5782 5782 5782 5782 5782 5782 5782 5781 5781 5781 5781 5781 5781 5781 5781 5781 5781 5781 5781 5781 5781 5781 5781 5781 5781 5781 5781 5782 5782 5783 5784 5784 5785 5786 5787 5787 5787 5787 5788 5788 5788 5789 5790 5790 5791
5779 5779 5779 5778 5778 5778 5778 5778 5778 5777 5777 5777 5777 5777 5777 5777 5777 5776 5776 5776 5776 5776 5776 5776 5776 5776 5776 5776 5776 5776 5776 5776 5776 5776 5776 5777 5777 5778 5779 5779 5780 5780 5781 5782 5782 5782 5783 5783 5783 5784 5785 5786
5775 5774 5774 5774 5774 5774 5773 5773 5773 5773 5773 5773 5772 5772 5772 5772 5772 5772 5772 5771 5771 5771 5771 5771 5771 5771 5771 5771 5771 5771 5771 5771 5771 5771 5771 5771 5771 5772 5773 5773 5774 5775 5775 5776 5776 5777 5777 5777 5778 5778 5779 5780
5770 5770 5770 5770 5769 5769 5769 5768 5768 5768 5768 5768 5768 5767 5767 5767 5767 5767 5766 5766 5766 5766 5766 5766 5766 5765 5765 5765 5765 5765 5765 5766 5766 5766 5766 5765 5765 5766 5766 5767 5768 5769 5769 5770 5770 5771 5771 5772 5772 5772 5773 5774
5765 5765 5765 5765 5764 5764 5764 5764 5763 5763 5763 5763 5762 5762 5762 5762 5762 5761 5761 5761 5761 5760 5760 5760 5760 5760 5759 5759 5759 5759 5759 5759 5759 5759 5760 5760 5759 5759 5760 5760 5761 5761 5762 5763 5764 5764 5765 5765 5766 5766 5766 5767
5761 5760 5760 5760 5759 5759 5759 5759 5758 5758 5758 5757 5757 5757 5757 5756 5756 5756 5756 5755 5755 5754 5754 5754 5754 5753 5753 5753 5753 5753 5753 5753 5753 5752 5753 5753 5753 5753 5753 5753 5753 5753 5754 5755 5756 5757 5757 5758 5759 5760 5760 5760
5756 5755 5755 5754 5754 5754 5753 5753 5753 5752 5752 5752 5751 5751 5750 5750 5750 5750 5749 5749 5749 5748 5748 5748 5747 5747 5747 5747 5746 5746 5746 5746 5746 5746 5746 5746 5746 5746 5746 5746 5746 5746 5746 5747 5748 5748 5749 5750 5751 5752 5753 5753
5751 5751 5750 5749 5749 5748 5748 5747 5747 5746 5746 5746 5745 5745 5744 5744 5743 5743 5743 5742 5742 5742 5741 5741 5741 5741 5740 5740 5740 5740 5739 5739 5739 5739 5739 5739 5739 5739 5739 5738 5738 5738 5738 5739 5739 5740 5741 5741 5742 5743 5744 5745
5746 5746 5745 5744 5744 5743 5742 5742 5741 5740 5740 5739 5739 5738 5738 5737 5737 5736 5736 5735 5735 5735 5735 5735 5734 5734 5733 5733 5733 5733 5733 5733 5732 5732 5732 5732 5732 5732 5732 5732 5732 5732 5731 5731 5731 5732 5732 5733 5734 5734 5735 5736
5741 5740 5739 5739 5738 5737 5737 5736 5735 5734 5734 5733 5733 5732 5731 5731 5730 5730 5729 5729 5728 5728 5728 5728 5728 5727 5727 5727 5726 5726 5726 5726 5726 5725 5725 5725 5725 5725 5725 5725 5725 5725 5725 5724 5724 5724 5724 5725 5725 5726 5727 5728
5735 5734 5734 5733 5732 5731 5731 5730 5729 5729 5728 5727 5726 5726 5725 5725 5724 5724 5723 5723 5722 5722 5721 5721 5721 5721 5720 5720 5720 5719 5719 5719 5719 5719 5719 5718 5718 5718 5718 5717 5717 5717 5717 5717 5717 5717 5717 5717 5717 5718 5718 5719
5729 5729 5728 5727 5726 5726 5725 5724 5724 5723 5722 5722 5721 5720 5720 5719 5719 5718 5717 5717 5716 5715 5715 5715 5714 5714 5714 5713 5713 5712 5712 5712 5712 5711 5711 5711 5711 5711 5711 5710 5710 5710 5710 5710 5710 5710 5710 5710 5709 5710 5710 5710
5724 5723 5723 5722 5721 5721 5720 5719 5719 5719 5717 5717 5716 5715 5715 5714 5713 5712 5711 5711 5710 5709 5709 5708 5708 5708 5707 5707 5706 5706 5706 5705 5705 5705 5704 5704 5704 5704 5704 5704 5703 5703 5703 5703 5703 5703 5703 5703 5702 5702 5702 5702
5719 5718 5717 5717 5716 5715 5715 5714 5714 5713 5712 5711 5710 5709 5709 5708 5707 5706 5706 5705 5704 5704 5703 5702 5702 5701 5701 5701 5700 5700 5699 5699 5699 5698 5698 5698 5697 5697 5697 5697 5696 5696 5696 5696 5696 5696 5695 5695 5695 5695 5695 5695
5714 5713 5713 5712 5711 5710 5709 5709 5708 5708 5707 5706 5705 5704 5703 5702 5702 5701 5700 5699 5699 5698 5697 5696 5696 5695 5695 5694 5694 5693 5693 5692 5692 5692 5691 5691 5691 5691 5690 5690 5690 5689 5689 5689 5688 5688 5688 5688 5688 5688 5688 5688
5710 5709 5708 5707 5706 5705 5704 5704 5703 5702 5701 5701 5699 5698 5698 5697 5696 5695 5694 5693 5693 5692 5691 5691 5690 5689 5688 5688 5687 5687 5686 5686 5685 5685 5684 5684 5684 5684 5683 5683 5682 5682 5682 5681 5681 5681 5681 5680 5680 5680 5680 5680
5705 5704 5703 5702 5702 5700 5699 5699 5698 5697 5696 5695 5694 5693 5692 5691 5690 5689 5688 5687 5687 5686 5685 5684 5684 5683 5682 5682 5681 5680 5680 5679 5679 5678 5677 5677 5677 5677 5676 5675 5675 5675 5674 5673 5673 5673 5673 5672 5672 5672 5672 5672
5700 5699 5698 5697 5697 5695 5693 5694 5693 5692 5691 5689 5689 5687 5686 5685 5684 5683 5682 5681 5681 5680 5679 5678 5677 5676 5676 5675 5674 5673 5673 5672 5671 5671 5671 5670 5669 5669 5669 5668 5668 5667 5666 5666 5665 5665 5664 5664 5664 5664 5664 5664
5695 5694 5693 5692 5691 5690 5688 5688 5687 5686 5685 5684 5683 5681 5679 5678 5678 5677 5676 5676 5675 5674 5673 5672 5671 5670 5669 5668 5667 5666 5665 5665 5664 5663 5663 5662 5661 5661 5661 5660 5660 5659 5659 5658 5657 5657 5656 5655 5655 5655 5655 5655
5690 5689 5688 5687 5686 5685 5683 5682 5682 5680 5679 5678 5677 5676 5673 5672 5672 5671 5670 5669 5669 5668 5667 5666 5665 5663 5662 5661 5660 5659 5658 5657 5656 5655 5655 5654 5654 5653 5652 5652 5651 5650 5650 5649 5649 5648 5647 5646 5645 5646 5646 5645
5685 5684 5683 5681 5680 5679 5677 5676 5676 5674 5673 5671 5670 5670 5668 5666 5666 5665 5663 5663 5662 5661 5660 5658 5657 5656 5654 5653 5652 5651 5650 5649 5648 5647 5646 5645 5645 5644 5644 5643 5643 5642 5641 5640 5640 5640 5639 5638 5636 5637 5636 5635
5679 5679 5677 5676 5675 5673 5672 5670 5669 5668 5667 5665 5664 5664 5662 5660 5659 5658 5657 5656 5654 5653 5652 5650 5649 5648 5646 5645 5644 5643 5642 5640 5639 5638 5637 5636 5636 5635 5635 5635 5634 5633 5632 5631 5631 5631 5630 5629 5628 5628 5628 5626
5674 5673 5671 5670 5669 5667 5666 5664 5663 5662 5660 5659 5658 5658 5656 5654 5653 5651 5649 5648 5647 5646 5644 5643 5641 5640 5638 5637 5635 5634 5633 5632 5631 5629 5628 5627 5626 5626 5625 5625 5625 5624 5622 5622 5622 5621 5621 5619 5619 5618 5618 5618
5669 5667 5666 5664 5663 5662 5660 5659 5657 5656 5655 5653 5652 5651 5650 5647 5646 5644 5642 5641 5640 5638 5637 5635 5633 5632 5630 5629 5628 5626 5624 5623 5622 5621 5620 5619 5618 5617 5616 5615 5616 5614 5613 5612 5612 5612 5611 5610 5609 5608 5609 5609
5664 5662 5660 5659 5657 5656 5655 5653 5652 5650 5649 5647 5646 5645 5643 5640 5639 5637 5635 5634 5633 5631 5629 5628 5626 5624 5623 5621 5620 5618 5617 5615 5614 5612 5611 5610 5609 5608 5607 5607 5606 5605 5603 5603 5603 5602 5602 5601 5599 5598 5598 5600
5658 5657 5655 5653 5651 5650 5649 5647 5646 5644 5643 5641 5639 5638 5636 5633 5632 5631 5629 5627 5626 5624 5622 5620 5619 5616 5615 5613 5612 5610 5609 5607 5606 5604 5602 5601 5600 5599 5598 5598 5598 5597 5595 5593 5592 5592 5592 5592 5591 5589 5588 5589
5653 5651 5650 5648 5646 5644 5642 5641 5639 5638 5637 5635 5633 5631 5629 5626 5625 5624 5622 5620 5618 5616 5614 5613 5611 5609 5607 5605 5604 5602 5601 5599 5597 5596 5594 5592 5591 5589 5588 5587 5588 5588 5587 5585 5583 5582 5582 5581 5581 5580 5579 5579
5647 5645 5644 5642 5640 5638 5636 5635 5633 5632 5630 5628 5626 5624 5622 5619 5618 5617 5615 5613 5611 5609 5606 5604 5603 5601 5599 5596 5595 5594 5592 5591 5589 5587 5585 5583 5582 5580 5579 5577 5577 5577 5578 5577 5574 5572 5571 5570 5570 5570 5569 5570
5641 5639 5638 5636 5634 5632 5630 5629 5627 5625 5623 5621 5620 5618 5615 5613 5611 5609 5608 5605 5603 5600 5598 5596 5594 5592 5591 5588 5586 5584 5583 5583 5581 5579 5577 5575 5573 5571 5570 5568 5567 5566 5566 5567 5565 5563 5562 5559 5559 5559 5559 5559
5635 5633 5631 5629 5627 5625 5624 5622 5620 5618 5615 5614 5613 5611 5609 5606 5604 5602 5600 5598 5595 5592 5590 5587 5585 5583 5582 5580 5577 5575 5574 5573 5572 5571 5568 5566 5563 5562 5560 5559 5558 5556 5555 5555 5555 5554 5553 5550 5547 5547 5547 5547